| time (UTC) | temp F | wind direction | speed MPH | gust MPH | rain 1hr in | rain 24hr in | rain mn in | humidity % | barometer mb |
| 20260904160052 | 99 | 0.0 | 0.0 | 0.00 | 0.00 | 0.00 | 25 | 1015.3 | |
| 20260904154544 | 99 | 0.0 | 0.0 | 0.00 | 0.00 | 0.00 | 25 | 1015.1 | |
| 20260904153043 | 99 | 5 | 0.0 | 0.0 | 0.00 | 0.00 | 0.00 | 25 | 1015.2 |
| 20260904151519 | 99 | 5 | 0.0 | 0.0 | 0.00 | 0.00 | 0.00 | 26 | 1015.2 |
| 20260904150028 | 99 | 5 | 0.0 | 0.0 | 0.00 | 0.00 | 0.00 | 25 | 1015.3 |
| 20260904144500 | 100 | 5 | 0.0 | 0.0 | 0.00 | 0.00 | 0.00 | 26 | 1015.3 |
| 20260904143057 | 99 | 0.0 | 0.0 | 0.00 | 0.00 | 0.00 | 25 | 1015.4 | |
| 20260904141551 | 99 | 360 | 0.0 | 0.0 | 0.00 | 0.00 | 0.00 | 26 | 1015.5 |
| 20260904140057 | 99 | 0.0 | 0.0 | 0.00 | 0.00 | 0.00 | 26 | 1015.6 | |
| 20260904134536 | 99 | 360 | 0.0 | 0.0 | 0.00 | 0.00 | 0.00 | 26 | 1015.7 |
| 20260904133012 | 98 | 360 | 0.0 | 0.0 | 0.00 | 0.00 | 0.00 | 25 | 1015.9 |
| 20260904131502 | 98 | 360 | 0.0 | 0.0 | 0.00 | 0.00 | 0.00 | 26 | 1016.0 |
| 20260904130045 | 98 | 0.0 | 0.0 | 0.00 | 0.00 | 0.00 | 26 | 1016.2 | |
| 20260904124518 | 98 | 360 | 0.0 | 0.0 | 0.00 | 0.00 | 0.00 | 26 | 1016.3 |
| 20260904123005 | 98 | 360 | 0.0 | 0.0 | 0.00 | 0.00 | 0.00 | 27 | 1016.4 |
| 20260904121504 | 98 | 0.0 | 0.0 | 0.00 | 0.00 | 0.00 | 27 | 1016.5 | |
| 20260904120107 | 96 | 5 | 0.0 | 0.0 | 0.00 | 0.00 | 0.00 | 35 | 1016.5 |
| 20260904114542 | 96 | 5 | 0.0 | 0.0 | 0.00 | 0.00 | 0.00 | 35 | 1016.5 |
| 20260904113033 | 95 | 5 | 0.0 | 0.0 | 0.00 | 0.00 | 0.00 | 40 | 1016.8 |
| 20260904111524 | 94 | 5 | 0.0 | 0.0 | 0.00 | 0.00 | 0.00 | 44 | 1016.9 |
| 20260904110105 | 92 | 0.0 | 0.0 | 0.00 | 0.00 | 0.00 | 46 | 1017.0 | |
| 20260904104550 | 91 | 5 | 0.0 | 0.0 | 0.00 | 0.00 | 0.00 | 48 | 1017.4 |
| 20260904103018 | 89 | 0.0 | 0.0 | 0.00 | 0.00 | 0.00 | 51 | 1017.5 | |
| 20260904101506 | 88 | 5 | 0.0 | 0.0 | 0.00 | 0.00 | 0.00 | 54 | 1017.8 |
| 20260904100049 | 86 | 360 | 0.0 | 0.0 | 0.00 | 0.00 | 0.00 | 55 | 1018.0 |
| 20260904094539 | 85 | 360 | 0.0 | 0.0 | 0.00 | 0.00 | 0.00 | 57 | 1018.1 |
| 20260904093017 | 85 | 360 | 0.0 | 0.0 | 0.00 | 0.00 | 0.00 | 58 | 1018.3 |
| 20260904091506 | 83 | 360 | 0.0 | 0.0 | 0.00 | 0.00 | 0.00 | 61 | 1018.3 |
| 20260904090058 | 81 | 360 | 0.0 | 0.0 | 0.00 | 0.00 | 0.00 | 65 | 1018.3 |
| 20260904084551 | 80 | 0.0 | 0.0 | 0.00 | 0.00 | 0.00 | 66 | 1018.4 | |
| 20260904083033 | 78 | 360 | 0.0 | 0.0 | 0.00 | 0.00 | 0.00 | 69 | 1018.4 |
| 20260904081521 | 77 | 360 | 0.0 | 0.0 | 0.00 | 0.00 | 0.00 | 70 | 1018.4 |
| 20260904080020 | 77 | 5 | 0.0 | 0.0 | 0.00 | 0.00 | 0.00 | 70 | 1018.5 |
| 20260904074504 | 75 | 360 | 0.0 | 0.0 | 0.00 | 0.00 | 0.00 | 70 | 1018.6 |
| 20260904073105 | 72 | 360 | 0.0 | 0.0 | 0.00 | 0.00 | 0.00 | 60 | 1018.6 |
| 20260904071535 | 70 | 5 | 0.0 | 0.0 | 0.00 | 0.00 | 0.00 | 50 | 1018.7 |
| 20260904070042 | 70 | 5 | 0.0 | 0.0 | 0.00 | 0.00 | 0.00 | 27 | 1018.8 |
| 20260904064522 | 66 | 5 | 0.0 | 0.0 | 0.00 | 0.00 | 0.00 | 15 | 1018.8 |
| 20260904063025 | 63 | 5 | 0.0 | 0.0 | 0.00 | 0.00 | 0.00 | 11 | 1018.9 |
| 20260904061503 | 61 | 0.0 | 0.0 | 0.00 | 0.00 | 0.00 | 12 | 1019.0 | |
| 20260904060113 | 61 | 5 | 0.0 | 0.0 | 0.00 | 0.00 | 0.00 | 13 | 1018.8 |
| 20260904054549 | 61 | 0.0 | 0.0 | 0.00 | 0.00 | 0.00 | 13 | 1018.7 | |
| 20260904053037 | 61 | 5 | 0.0 | 0.0 | 0.00 | 0.00 | 0.00 | 14 | 1018.8 |
| 20260904051525 | 61 | 360 | 0.0 | 0.0 | 0.00 | 0.00 | 0.00 | 16 | 1018.8 |
| 20260904050104 | 61 | 360 | 0.0 | 0.0 | 0.00 | 0.00 | 0.00 | 15 | 1018.9 |
| 20260904044545 | 62 | 360 | 0.0 | 0.0 | 0.00 | 0.00 | 0.00 | 15 | 1018.9 |
| 20260904043027 | 62 | 5 | 0.0 | 0.0 | 0.00 | 0.00 | 0.00 | 18 | 1019.0 |
| 20260904041521 | 62 | 5 | 0.0 | 0.0 | 0.00 | 0.00 | 0.00 | 19 | 1019.0 |
| 20260904040004 | 63 | 360 | 0.0 | 0.0 | 0.00 | 0.00 | 0.00 | 19 | 1019.0 |
| 20260904034550 | 63 | 5 | 0.0 | 0.0 | 0.00 | 0.00 | 0.00 | 20 | 1019.2 |
| 20260904033025 | 63 | 5 | 0.0 | 0.0 | 0.00 | 0.00 | 0.00 | 23 | 1019.4 |
| 20260904031503 | 63 | 360 | 0.0 | 0.0 | 0.00 | 0.00 | 0.00 | 23 | 1019.4 |
| 20260904030046 | 64 | 5 | 0.0 | 0.0 | 0.00 | 0.00 | 0.00 | 22 | 1019.5 |
| 20260904024541 | 64 | 5 | 0.0 | 0.0 | 0.00 | 0.00 | 0.00 | 24 | 1019.5 |
| 20260904023019 | 64 | 360 | 0.0 | 0.0 | 0.00 | 0.00 | 0.00 | 26 | 1019.5 |
| 20260904021555 | 64 | 360 | 0.0 | 0.0 | 0.00 | 0.00 | 0.00 | 30 | 1019.5 |
| 20260904020030 | 65 | 360 | 0.0 | 0.0 | 0.00 | 0.00 | 0.00 | 30 | 1019.6 |
| 20260904014522 | 65 | 360 | 0.0 | 0.0 | 0.00 | 0.00 | 0.00 | 32 | 1019.6 |
| 20260904013126 | 65 | 0.0 | 0.0 | 0.00 | 0.00 | 0.00 | 36 | 1019.7 | |
| 20260904011542 | 65 | 5 | 0.0 | 0.0 | 0.00 | 0.00 | 0.00 | 40 | 1019.8 |
| 20260904010032 | 65 | 5 | 0.0 | 0.0 | 0.00 | 0.00 | 0.00 | 43 | 1019.8 |
| 20260904004521 | 65 | 5 | 0.0 | 0.0 | 0.00 | 0.00 | 0.00 | 47 | 1020.0 |
| 20260904003101 | 66 | 0.0 | 0.0 | 0.00 | 0.00 | 0.00 | 47 | 1020.2 | |
| 20260904001609 | 66 | 5 | 0.0 | 0.0 | 0.00 | 0.00 | 0.00 | 51 | 1020.3 |
| 20260904000046 | 66 | 360 | 0.0 | 0.0 | 0.00 | 0.00 | 0.00 | 54 | 1020.3 |
| 20260903234520 | 66 | 0.0 | 0.0 | 0.00 | 0.00 | 0.00 | 59 | 1020.3 | |
| 20260903233102 | 66 | 5 | 0.0 | 0.0 | 0.00 | 0.00 | 0.00 | 61 | 1020.3 |
| 20260903231603 | 67 | 360 | 0.0 | 0.0 | 0.00 | 0.00 | 0.00 | 63 | 1020.3 |
| 20260903230036 | 67 | 360 | 0.0 | 0.0 | 0.00 | 0.00 | 0.00 | 66 | 1020.3 |
| 20260903224523 | 68 | 360 | 0.0 | 0.0 | 0.00 | 0.00 | 0.00 | 67 | 1020.2 |
| 20260903223103 | 68 | 5 | 0.0 | 0.0 | 0.00 | 0.00 | 0.00 | 69 | 1020.2 |
| 20260903221539 | 69 | 360 | 0.0 | 0.0 | 0.00 | 0.00 | 0.00 | 70 | 1020.1 |
| 20260903220014 | 69 | 5 | 0.0 | 0.0 | 0.00 | 0.00 | 0.00 | 70 | 1020.1 |
| 20260903214512 | 70 | 5 | 0.0 | 0.0 | 0.00 | 0.00 | 0.00 | 72 | 1020.2 |
| 20260903213004 | 70 | 360 | 0.0 | 0.0 | 0.00 | 0.00 | 0.00 | 72 | 1020.3 |
| 20260903211558 | 71 | 5 | 0.0 | 0.0 | 0.00 | 0.00 | 0.00 | 72 | 1020.2 |
| 20260903210052 | 72 | 5 | 0.0 | 0.0 | 0.00 | 0.00 | 0.00 | 72 | 1020.2 |
| 20260903204531 | 72 | 360 | 0.0 | 0.0 | 0.00 | 0.00 | 0.00 | 72 | 1020.2 |
| 20260903203022 | 73 | 5 | 0.0 | 0.0 | 0.00 | 0.00 | 0.00 | 71 | 1020.0 |
| 20260903201506 | 74 | 5 | 0.0 | 0.0 | 0.00 | 0.00 | 0.00 | 71 | 1020.0 |
| 20260903200058 | 75 | 5 | 0.0 | 0.0 | 0.00 | 0.00 | 0.00 | 70 | 1020.0 |
| 20260903194540 | 77 | 360 | 0.0 | 0.0 | 0.00 | 0.00 | 0.00 | 68 | 1019.7 |
| 20260903193037 | 78 | 5 | 0.0 | 0.0 | 0.00 | 0.00 | 0.00 | 67 | 1019.4 |
| 20260903191541 | 78 | 360 | 0.0 | 0.0 | 0.00 | 0.00 | 0.00 | 66 | 1019.1 |
| 20260903190036 | 79 | 5 | 0.0 | 0.0 | 0.00 | 0.00 | 0.00 | 65 | 1018.9 |
| 20260903184522 | 80 | 5 | 0.0 | 0.0 | 0.00 | 0.00 | 0.00 | 64 | 1018.7 |
| 20260903183009 | 81 | 5 | 0.0 | 0.0 | 0.00 | 0.00 | 0.00 | 63 | 1018.5 |
| 20260903181600 | 82 | 360 | 0.0 | 0.0 | 0.00 | 0.00 | 0.00 | 62 | 1018.4 |
| 20260903180111 | 83 | 360 | 0.0 | 0.0 | 0.00 | 0.00 | 0.00 | 60 | 1018.2 |
| 20260903174551 | 84 | 0.0 | 0.0 | 0.00 | 0.00 | 0.00 | 59 | 1018.1 | |
| 20260903173045 | 85 | 5 | 0.0 | 0.0 | 0.00 | 0.00 | 0.00 | 57 | 1018.0 |
| 20260903171542 | 86 | 360 | 0.0 | 0.0 | 0.00 | 0.00 | 0.00 | 54 | 1017.9 |
| 20260903170016 | 87 | 5 | 0.0 | 0.0 | 0.00 | 0.00 | 0.00 | 52 | 1017.8 |
| 20260903164502 | 88 | 0.0 | 0.0 | 0.00 | 0.00 | 0.00 | 48 | 1017.8 | |
| 20260903163133 | 89 | 360 | 0.0 | 0.0 | 0.00 | 0.00 | 0.00 | 45 | 1017.6 |
| 20260903161551 | 90 | 0.0 | 0.0 | 0.00 | 0.00 | 0.00 | 44 | 1017.6 |